Weather in Fray Bentos

Uruguay     33°06′59″S   58°18′50″W
temp.,
°C
wind,
m/s
gust,
m/s
humid.,
%
clouds,
%
prec.,
mm/h
press.,
hPa
HPBL,
m
24 june, thu
thu2400:00+14ssw3499100 4.1 1008165
03:00+13sw51098100 7.0 1008531
06:00+13sw51095100 1.7 1008522
09:00+12sw61295100 1.8 1009591
12:00+13sw71290100 0.0 1010678
15:00+16sw7107012 0.0 10101163
18:00+13wsw410760 0.0 1012220
21:00+11wsw49770 0.0 1014158
25 june, fri
fri2500:00+10wsw38660 0.0 1015122
03:00+9w34695 0.0 101650
06:00+8wsw22695 0.0 101617
09:00+9se116967 0.0 101715
12:00+15ene2354100 0.0 1017362
15:00+17ne345161 0.0 1015733
18:00+12e337450 0.0 101540
21:00+10ene388490 0.0 1016153
26 june, sat
sat2600:00+9ene3688100 0.0 1016117
03:00+9ne2288100 0.0 101524
06:00+9se2287100 0.0 101426
09:00+9sse3586100 0.0 1016125
12:00+13s5871100 0.0 1016602
15:00+14s686897 0.0 10151140
18:00+11s7117287 0.0 1017839
21:00+10s71272100 0.0 1020749
27 june, sun
sun2700:00+10ssw61064100 0.0 1021990
03:00+6sw511733 0.0 1022374
06:00+4sw49790 0.0 1023236
09:00+4sw510770 0.0 1024329
12:00+9sw576415 0.0 1025889
15:00+8sw6760100 0.0 10241296
18:00+7wsw5866100 0.1 1024737
21:00+5wsw4886100 0.1 1025714
28 june, mon
mon2800:00+5wsw5890100 0.2 1025718
03:00+4w388967 0.2 1025262
06:00+3wnw369165 0.0 1024171
09:00+5w598111 0.0 1025441
12:00+8w68625 0.0 10251240
15:00+9wsw7955100 0.1 10231577
18:00+6wsw5107872 0.6 1024358
21:00+6w5107649 0.6 1024363